Погода в Варзобе

Таджикистан     38°46′26″N   68°49′07″E
темп.,
°C
ветер,
м/с
пор.,
м/с
влажн.,
%
обл.,
%
осадки,
мм/ч
давл.,
гПа
погр.,
м
18 мая, вт
вт1823:00+12с665021 0.0 101667
02:00+13с554613 0.0 101450
05:00+12с55463 0.0 101448
08:00+18ссв22395 0.0 1013421
11:00+20ю443629 0.1 10122194
14:00+21ю353445 0.9 10122394
17:00+19ююз3245100 1.6 10111509
20:00+15с555228 0.2 101360
19 мая, ср
ср1923:00+13с665438 0.4 101469
02:00+13с555346 0.8 101359
05:00+12с55542 1.4 101253
08:00+18всв11410 0.0 1011456
11:00+20ю432911 0.0 10112713
14:00+21ю332417 0.0 10102639
17:00+21ю23265 0.0 10092387
20:00+16ссв223725 0.0 101013
20 мая, чт
чт2023:00+14с55417 0.0 101260
02:00+14с553945 0.0 101146
05:00+14с5536100 0.0 101149
08:00+18ссв113495 0.0 1011298
11:00+21ю432970 0.0 10112141
14:00+21зюз332623 0.0 10102637
17:00+13с101164100 1.2 1015399
20:00+13с7853100 1.6 1015143
21 мая, пт
пт2123:00+12с675187 1.6 101581
02:00+12с66454 0.0 101573
05:00+11с66432 0.0 101573
08:00+18с34360 0.0 1014319
11:00+21ю222613 0.0 10132642
14:00+21ююз322911 0.0 10122211
17:00+14ссз456196 0.9 1014232
20:00+13с5660100 0.5 1016144
22 мая, сб
сб2223:00+13ссв5661100 0.7 1016144
02:00+12с5556100 0.1 101465
05:00+12с555198 0.3 101448
08:00+17в114015 0.1 1013424
11:00+19ю434076 0.7 10131735
14:00+20ююз243632 0.9 10112556
17:00+14з5563100 3.6 1013713
20:00+11с6774100 8.6 1015161